Flag for Poland Weather past 2 weeks in Gdańsk, Poland

Now
36 °F

Light rain. Fog.


Feels Like: 32 °F
Forecast: 38 / 44 °F
Wind: 5 mph from South

Location: Gdansk-Rebiechowo

Current Time: Mar 31, 2015 at 8:58:37 PM

Latest Report: Mar 31, 2015 at 8:30 PM


Visibility: 2 mi

Pressure: 28.91 "Hg

Humidity: 100%

Dew point: 36 °F

Location of GdańskLocation

Historic Weather in Gdańsk — Graph

°F

Gdańsk temperature yesterday

Maximum temperature yesterday: 46 °F (at 12:00 AM)
Minimum temperature yesterday: 37 °F (at 10:30 AM)
Average temperature yesterday: 42 °F

Past Weeks' High & Low Weather Summary

 TemperatureHumidityPressure
High55 °F (Mar 17, 1:30 PM)100% (Mar 21, 5:30 PM)30.72 "Hg (Mar 21, 5:30 PM)
Low27 °F (Mar 19, 4:30 AM)23% (Mar 23, 12:30 PM)28.82 "Hg (Mar 30, 7:30 AM)
Average40 °F73%29.95 "Hg
* Reported Mar 16 6:00 PM — Mar 31 7:30 PM, Gdańsk, Weather by CustomWeather, © 2015

Note: Actual official high and low records may vary slightly from our data, if they occured in-between our weather recording intervals... More about our weather records

Advertising

Gdańsk weather history for previous 24 hours

 ConditionsComfort  
Time TempWeatherWind HumidityBarometerVisibility
7:30 PM
Tue, Mar 31
36 °FLight rain. Fog.6 mph100%28.91 "Hg2 mi
7:00 PM34 °FLight rain. Fog.6 mph100%28.91 "Hg2 mi
6:30 PM34 °FLight rain. Partly sunny.5 mph100%28.94 "Hg4 mi
6:00 PM34 °FLight rain. Fog.7 mph100%28.94 "Hg2 mi
5:30 PM34 °FLight rain. Broken clouds.9 mph100%28.94 "Hg2 mi
5:00 PM34 °FRain. Partly sunny.9 mph100%28.97 "Hg1 mi
4:30 PM34 °FLight rain. Partly sunny.12 mph100%29.00 "Hg1 mi
4:00 PM34 °FLight rain. Partly sunny.15 mph100%29.00 "Hg2 mi
3:30 PM34 °FRain. Partly sunny.13 mph93%29.03 "Hg1 mi
3:00 PM34 °FRain. Partly sunny.12 mph100%29.06 "Hg1 mi
2:30 PM34 °FLight rain. Partly sunny.9 mph100%29.06 "Hg2 mi
2:00 PM36 °FLight rain. Partly sunny.10 mph93%29.09 "Hg2 mi
1:30 PM36 °FLight rain. Partly sunny.9 mph87%29.09 "Hg4 mi
1:00 PM37 °FLight rain. Partly sunny.8 mph81%29.12 "Hg5 mi
12:30 PM37 °FLight rain. Broken clouds.12 mph81%29.15 "Hg5 mi
12:00 PM39 °FScattered clouds.12 mph70%29.15 "HgN/A
11:30 AM39 °FScattered clouds.12 mph70%29.18 "HgN/A
11:00 AM41 °FScattered clouds.12 mph66%29.21 "HgN/A
10:30 AM41 °FScattered clouds.8 mph66%29.21 "HgN/A
10:00 AM39 °FScattered clouds.12 mph70%29.24 "HgN/A
9:30 AM39 °FScattered clouds.9 mph70%29.24 "HgN/A
9:00 AM37 °FScattered clouds.13 mph75%29.27 "HgN/A
8:30 AM37 °FScattered clouds.9 mph81%29.27 "HgN/A
8:00 AM37 °FScattered clouds.12 mph75%29.30 "HgN/A
7:30 AM37 °FScattered clouds.10 mph75%29.30 "HgN/A
7:00 AM37 °FPassing clouds.9 mph81%29.33 "HgN/A
6:30 AM37 °FPassing clouds.9 mph81%29.33 "HgN/A
6:00 AM37 °FPassing clouds.13 mph75%29.33 "HgN/A
5:30 AM37 °FPassing clouds.14 mph81%29.36 "HgN/A
5:00 AM39 °FPassing clouds.18 mph70%29.36 "HgN/A
4:30 AM39 °FPassing clouds.17 mph75%29.36 "HgN/A
4:00 AM39 °FSprinkles. Passing clouds.18 mph75%29.36 "HgN/A
3:30 AM39 °FPassing clouds.18 mph75%29.36 "HgN/A
3:00 AM41 °FPassing clouds.18 mph76%29.36 "HgN/A
2:30 AM41 °FPassing clouds.17 mph76%29.33 "HgN/A
2:00 AM41 °FPassing clouds.18 mph76%29.33 "HgN/A
1:30 AM41 °FPassing clouds.17 mph81%29.33 "HgN/A
1:00 AM41 °FPassing clouds.21 mph76%29.30 "HgN/A
12:30 AM41 °FPassing clouds.20 mph81%29.30 "HgN/A
12:00 AM41 °FPassing clouds.23 mph81%29.27 "HgN/A
11:30 PM
Mon, Mar 30
41 °FLight rain. Passing clouds.23 mph81%29.27 "HgN/A
11:00 PM41 °FSprinkles. Partly cloudy.23 mph81%29.24 "HgN/A
10:30 PM43 °FSprinkles. Passing clouds.23 mph76%29.24 "HgN/A
10:00 PM41 °FSprinkles. Passing clouds.22 mph81%29.21 "HgN/A
9:30 PM41 °FSprinkles. Passing clouds.22 mph81%29.18 "HgN/A
9:00 PM41 °FLight rain. Passing clouds.23 mph81%29.18 "HgN/A
8:30 PM41 °FLight rain. Passing clouds.21 mph81%29.15 "HgN/A
8:00 PM41 °FLight rain. Partly sunny.23 mph81%29.15 "HgN/A
Weather by CustomWeather, © 2015

See weather overviewHow to use our weather pages